Other Surface Observations
Issued by NWS Upton, NY

Home | Current Version | Previous Version | Text Only | Print | Product List | Glossary On
Versions: 1 2 3 4 5 6 7 8 9 10 11 12 13 14 15 16 17 18 19 20 21 22 23 24 25 26 27 28 29 30 31 32 33 34 35 36 37 38 39 40 41 42 43 44 45 46 47 48 49 50
000
SXUS51 KOKX 240357
OSOOKX
New York City Metropolitan Area Weather Roundup
National Weather Service New York NY
1200 AM EDT THU MAY 24 2018

CITY           SKY/WX    TMP DP  RH WIND       PRES   REMARKS
Central Park   FAIR      71  50  47 CALM      30.04R
LaGuardia Arpt FAIR      72  51  47 NW7       30.00R
Kennedy Intl   FAIR      74  50  42 NW8       30.01R
Newark Liberty FAIR      71  51  49 W8        30.01R
Teterboro Arpt FAIR      68  52  56 NW7       30.00R
Bronx Bot Gard   N/A     70  48  46 NW6       30.04R
Bronx Lehman C   N/A     72  48  43 NW7         N/A
Queens College   N/A     75  48  38 NW9         N/A
Breezy Point     N/A     68 N/A N/A W7          N/A
Brooklyn Coll    N/A     73  50  43 W8          N/A
Staten Island    N/A     70  52  52 W3          N/A

>>>>>>>>>>>>>>>>>>>>>>>>>>>>>>>>> KEY <<<<<<<<<<<<<<<<<<<<<<<<<<<<<<<
> SKY/WX - Sky Condition/Present    : R : WCI - Wind Chill Index    <
>          Weather                  : E : VSB - Visibility in Miles <
> TMP    - Temperature in Deg F     : M : HX  - Heat Index          <
> DP     - Dew Point Temperature    : A : TC  - Temperature in      <
> RH     - Relative Humidity        : R :       Celsius             <
> WIND   - Direction/Speed (mph)    : K : VRB - Variable Wind Dir   <
> PRES   - Pressure (in Hg)         : S :                           <
>>>>>>>>>>>>>>>>>>>>>>>>>>>>>>>>> KEY <<<<<<<<<<<<<<<<<<<<<<<<<<<<<<<




USA.gov is the U.S. government's official web portal to all federal, state and local government web resources and services.